Salt Lake City, UT

1:43 AM MDT on August 31, 2016 (GMT -0600)
Salt Lake City International

Weather History for KSLC - August, 2012

Change the Weather History Date:

Friday, August 24, 2012

  Actual Average Record
Temperature  
Mean Temperature 80 °F 75 °F  
Max Temperature 92 °F 89 °F 100 °F (1919)
Min Temperature 67 °F 62 °F 40 °F (1928)
Degree Days  
Heating Degree Days 0 0  
Month to date heating degree days 0 0  
Since 1 June heating degree days 38 48  
Since 1 July heating degree days 0 2  
Cooling Degree Days 15 10  
Month to date cooling degree days 409 310  
Year to date cooling degree days 1329 972  
Since 1 June cooling degree days 1251 922  
Growing Degree Days 28 (Base 50)    
Moisture  
Dew Point 46 °F    
Average Humidity 35    
Maximum Humidity 53    
Minimum Humidity 17    
Precipitation  
Precipitation 0.00 in 0.03 in 0.52 in (1900)
Month to date precipitation T 0.50  
Year to date precipitation 7.25 10.32  
Snow  
Snow 0.00 in 0.00 in - ()
Month to date snowfall 0.0 0.0  
Since 1 July snowfall 0.0 0.0  
Snow Depth 0.00 in    
Sea Level Pressure  
Sea Level Pressure 29.78 in    
Wind  
Wind Speed 8 mph (East)    
Max Wind Speed 18 mph    
Max Gust Speed 22 mph    
Visibility 10 miles    
Events      
T = Trace of Precipitation, MM = Missing Value Source: NWS Daily Summary

Daily Weather History Graph

Daily Weather History Graph

Search for Another Location

Airport or City:

Trip Planner

Search our weather history database for the weather conditions in past years. The results will help you decide how hot, cold, wet, or windy it might be!

Date:

Astronomy

Aug. 24, 2012 Rise Set
Actual Time 6:47 AM MDT 8:11 PM MDT
Civil Twilight 6:18 AM MDT 8:40 PM MDT
Nautical Twilight 5:44 AM MDT 9:14 PM MDT
Astronomical Twilight 5:08 AM MDT 9:50 PM MDT
Moon 2:47 PM MDT (8/24) No Moon Set
Length of Visible Light 14h 21m
Length of Day
13h 24m
First Quarter, 52% of the Moon is Illuminated
Aug 24
First Quarter
Aug 31
Full
Sep 8
Last Quarter
Sep 15
New
Sep 22
First Quarter

Hourly Weather History & Observations

Time (MDT) Temp. Heat Index Dew Point Humidity Pressure Visibility Wind Dir Wind Speed Gust Speed Precip Events Conditions
12:53 AM 72.0 °F - 42.1 °F 34% 29.75 in 10.0 mi SE 6.9 mph - N/A   Clear
1:53 AM 70.0 °F - 43.0 °F 38% 29.76 in 10.0 mi SSE 4.6 mph - N/A   Clear
2:53 AM 72.0 °F - 46.9 °F 41% 29.75 in 10.0 mi SSE 8.1 mph - N/A   Clear
3:53 AM 70.0 °F - 46.0 °F 42% 29.75 in 10.0 mi SSE 9.2 mph - N/A   Clear
4:53 AM 70.0 °F - 51.1 °F 51% 29.76 in 10.0 mi SE 9.2 mph - N/A   Clear
5:53 AM 69.1 °F - 51.1 °F 53% 29.78 in 10.0 mi SE 9.2 mph - N/A   Clear
6:53 AM 69.1 °F - 52.0 °F 54% 29.79 in 10.0 mi SE 9.2 mph - N/A   Partly Cloudy
7:53 AM 72.0 °F - 55.0 °F 55% 29.80 in 10.0 mi SSE 9.2 mph - N/A   Partly Cloudy
8:53 AM 75.0 °F - 55.9 °F 51% 29.81 in 10.0 mi SSE 9.2 mph - N/A   Scattered Clouds
9:53 AM 79.0 °F - 54.0 °F 42% 29.83 in 10.0 mi SSE 11.5 mph - N/A   Scattered Clouds
10:53 AM 82.0 °F 81.4 °F 55.0 °F 39% 29.83 in 10.0 mi SSE 12.7 mph 16.1 mph N/A   Scattered Clouds
11:53 AM 84.0 °F 82.5 °F 53.1 °F 34% 29.82 in 10.0 mi Calm Calm - N/A   Scattered Clouds
12:53 PM 88.0 °F - 48.0 °F 25% 29.80 in 10.0 mi NNW 9.2 mph - N/A   Scattered Clouds
1:53 PM 89.1 °F - 39.9 °F 18% 29.79 in 10.0 mi NNW 9.2 mph - N/A   Scattered Clouds
2:53 PM 90.0 °F - 43.0 °F 19% 29.78 in 10.0 mi NW 5.8 mph - N/A   Scattered Clouds
3:53 PM 91.0 °F - 46.9 °F 22% 29.76 in 10.0 mi North 15.0 mph 19.6 mph N/A   Scattered Clouds
4:53 PM 89.1 °F - 43.0 °F 20% 29.76 in 10.0 mi North 16.1 mph - N/A   Scattered Clouds
5:53 PM 89.1 °F - 36.0 °F 15% 29.75 in 10.0 mi North 13.8 mph 21.9 mph N/A   Scattered Clouds
6:53 PM 88.0 °F - 37.0 °F 16% 29.74 in 10.0 mi North 10.4 mph - N/A   Scattered Clouds
7:53 PM 84.0 °F - 37.0 °F 19% 29.75 in 10.0 mi NNE 5.8 mph - N/A   Scattered Clouds
8:53 PM 82.0 °F - 36.0 °F 19% 29.75 in 10.0 mi North 3.5 mph - N/A   Partly Cloudy
9:53 PM 73.9 °F - 43.0 °F 33% 29.78 in 10.0 mi West 10.4 mph - N/A   Clear
10:53 PM 72.0 °F - 42.1 °F 34% 29.80 in 10.0 mi NNE 5.8 mph - N/A   Clear
11:53 PM 68.0 °F - 43.0 °F 40% 29.81 in 10.0 mi WSW 3.5 mph - N/A   Clear